Location: Finkenwalde
(53.3770°N, 14.6418°E)
Time: 03:44:36
(UTC+00:00)

Okean-O - Pass Details

Date: 05 February 2023
Orbit: 637 x 638 km, 98.1° (Epoch: 24 March)

Event Time Altitude Azimuth Distance (km) Brightness Sun altitude
Exits shadow 16:56:15 12° 62° (ENE) 1,888 4.4 -9.9°
Maximum altitude 16:57:01 13° 51° (NE) 1,859 4.5 -10.0°
Drops below altitude 10° 16:58:58 10° 25° (NNE) 2,045 4.9 -10.3°
Sets 17:02:20 0° 358° (N) 2,960 5.9 -10.7°
